contact:dominique.lefevre@mio.osupytheas.fr, maurice.libes@osupytheas.fr, didier.mallarino@osupytheas.fr
Project:EMSO http://www.emso-fr.org/EMSO-France
Depth: 2436.0 m
Title:EMSO Ligure Ouest : Data MII capteur AQUADOPP
Date,Latitude,Longitude,X_East,Y_North,Z_Up,Amplitude_X,Amplitude_Y,Amplitude_Z,Batterie,SoundSpeed,Heading,Pitch,Roll,Pressure,TIS,Speed,Direction
, degrees North, degrees East, m.s-1, m.s-1,m.s-1, 1, 1, 1, Volt, m.s-1, degree, degree, degree, dbar, degree_C, m.s-1, degree
2020-03-12T00:04:03,42.805,6.029,-0.046,0.015,-0.03,107.0,108.0,102.0,13.4,1505.2,322.8,-0.7,1.8,2470.298,13.3,0.048,288.1
2020-03-12T00:07:03,42.805,6.029,-0.052,0.008,-0.032,107.0,108.0,102.0,13.3,1505.3,327.2,-0.7,1.9,2470.241,13.31,0.052,278.7
2020-03-12T00:10:03,42.805,6.029,-0.059,-0.007,-0.038,107.0,107.0,102.0,13.4,1505.3,328.6,-0.7,1.8,2470.325,13.32,0.059,263.2
2020-03-12T00:13:03,42.805,6.029,-0.068,0.014,-0.022,105.0,108.0,103.0,13.4,1505.3,326.0,-0.7,1.8,2470.267,13.32,0.069,281.6
2020-03-12T00:16:03,42.805,6.029,-0.059,-0.003,-0.067,107.0,107.0,102.0,13.4,1505.3,323.1,-0.7,1.8,2470.253,13.32,0.059,267.1
2020-03-12T00:19:03,42.805,6.029,-0.076,0.012,-0.061,106.0,107.0,103.0,13.4,1505.3,327.5,-0.7,1.8,2470.281,13.32,0.076,279.0
2020-03-12T00:22:03,42.805,6.029,-0.063,0.006,-0.039,107.0,108.0,104.0,13.4,1505.3,325.9,-0.7,1.8,2470.248,13.32,0.063,275.4
2020-03-12T00:25:03,42.805,6.029,-0.041,0.023,-0.054,106.0,108.0,103.0,13.4,1505.3,325.2,-0.8,1.8,2470.272,13.32,0.047,299.3
2020-03-12T00:28:03,42.805,6.029,-0.037,0.019,-0.023,107.0,109.0,104.0,13.4,1505.3,323.5,-0.7,1.8,2470.237,13.32,0.041,297.2
2020-03-12T00:31:03,42.805,6.029,-0.042,0.022,-0.034,109.0,107.0,102.0,13.4,1505.3,326.5,-0.7,1.8,2470.222,13.33,0.047,297.6
2020-03-12T00:34:03,42.805,6.029,-0.049,0.022,-0.045,105.0,110.0,103.0,13.4,1505.3,326.8,-0.7,1.8,2470.252,13.33,0.053,294.2
2020-03-12T00:37:03,42.805,6.029,-0.045,0.005,-0.043,106.0,108.0,103.0,13.4,1505.3,326.5,-0.7,1.8,2470.23,13.33,0.045,276.3
2020-03-12T00:40:03,42.805,6.029,-0.04,-0.002,-0.026,107.0,108.0,104.0,13.3,1505.3,327.7,-0.7,1.9,2470.226,13.33,0.04,267.1
2020-03-12T00:46:03,42.805,6.029,-0.062,-0.005,-0.042,105.0,108.0,102.0,13.4,1505.3,325.7,-0.7,1.8,2470.244,13.31,0.062,265.4
2020-03-12T00:49:03,42.805,6.029,-0.037,-0.001,0.023,109.0,110.0,103.0,13.4,1505.3,327.0,-0.7,1.8,2470.231,13.31,0.037,268.5
2020-03-12T00:52:03,42.805,6.029,-0.037,0.002,0.015,107.0,108.0,103.0,13.4,1505.3,326.6,-0.7,1.8,2470.271,13.32,0.037,273.1
2020-03-12T00:55:03,42.805,6.029,-0.041,0.019,-0.018,106.0,107.0,102.0,13.3,1505.3,324.5,-0.7,1.8,2470.207,13.32,0.045,294.9
2020-03-12T00:58:03,42.805,6.029,-0.061,0.011,-0.008,106.0,105.0,103.0,13.4,1505.3,324.6,-0.7,1.8,2470.226,13.32,0.061,280.2
2020-03-12T01:04:03,42.805,6.029,-0.035,0.015,-0.031,108.0,109.0,104.0,13.4,1505.2,324.1,-0.7,1.8,2470.284,13.3,0.038,293.2
2020-03-12T01:07:03,42.805,6.029,-0.061,0.027,-0.033,105.0,108.0,103.0,13.4,1505.3,328.0,-0.7,1.9,2470.271,13.31,0.066,293.9
2020-03-12T01:10:03,42.805,6.029,-0.038,0.023,-0.015,105.0,109.0,104.0,13.4,1505.3,326.8,-0.7,1.8,2470.304,13.32,0.044,301.2
2020-03-12T01:13:03,42.805,6.029,-0.061,0.006,-0.051,108.0,108.0,101.0,13.3,1505.3,327.7,-0.7,1.8,2470.209,13.32,0.061,275.6
2020-03-12T01:16:03,42.805,6.029,-0.039,0.041,-0.023,105.0,108.0,104.0,13.4,1505.3,324.2,-0.7,1.8,2470.219,13.32,0.056,316.4
2020-03-12T01:19:03,42.805,6.029,-0.048,0.018,-0.066,105.0,108.0,102.0,13.4,1505.3,324.8,-0.7,1.8,2470.205,13.32,0.051,290.6
2020-03-12T01:22:03,42.805,6.029,-0.044,0.013,-0.019,106.0,107.0,102.0,13.4,1505.3,323.2,-0.8,1.8,2470.222,13.32,0.045,286.5
2020-03-12T01:25:03,42.805,6.029,-0.081,0.028,-0.025,107.0,108.0,102.0,13.4,1505.3,326.2,-0.7,1.8,2470.212,13.32,0.085,289.1
2020-03-12T01:28:03,42.805,6.029,-0.035,-0.007,-0.063,107.0,107.0,103.0,13.4,1505.3,325.0,-0.7,1.8,2470.224,13.33,0.035,258.7
2020-03-12T01:31:03,42.805,6.029,-0.064,0.0,-0.055,107.0,107.0,102.0,13.4,1505.3,326.9,-0.7,1.8,2470.177,13.33,0.063,270.0
2020-03-12T01:34:03,42.805,6.029,-0.06,0.024,-0.016,106.0,108.0,102.0,13.4,1505.3,327.6,-0.7,1.8,2470.185,13.32,0.064,291.8
2020-03-12T01:37:03,42.805,6.029,-0.039,0.016,-0.015,106.0,109.0,102.0,13.3,1505.3,325.7,-0.7,1.9,2470.184,13.33,0.042,292.3
2020-03-12T01:40:03,42.805,6.029,-0.058,0.017,-0.066,107.0,108.0,103.0,13.4,1505.3,324.0,-0.7,1.8,2470.196,13.33,0.06,286.3
2020-03-12T01:43:03,42.805,6.029,-0.029,0.016,-0.035,107.0,108.0,102.0,13.3,1505.3,323.9,-0.7,1.8,2470.189,13.33,0.033,298.9
2020-03-12T01:46:03,42.805,6.029,-0.041,0.015,-0.033,106.0,106.0,102.0,13.4,1505.3,328.1,-0.7,1.9,2470.183,13.33,0.043,290.1
2020-03-12T01:49:03,42.805,6.029,-0.055,0.004,-0.053,107.0,107.0,101.0,13.3,1505.3,325.8,-0.7,1.8,2470.218,13.32,0.055,274.2
2020-03-12T01:52:03,42.805,6.029,-0.039,0.004,-0.046,106.0,107.0,103.0,13.4,1505.3,325.7,-0.7,1.8,2470.213,13.32,0.039,275.9
2020-03-12T01:55:03,42.805,6.029,-0.047,0.012,-0.052,106.0,108.0,103.0,13.4,1505.3,323.7,-0.7,1.9,2470.226,13.32,0.048,284.3
2020-03-12T01:58:03,42.805,6.029,-0.045,0.023,-0.028,105.0,108.0,103.0,13.3,1505.3,325.4,-0.7,1.8,2470.194,13.33,0.05,297.1
2020-03-12T02:04:03,42.805,6.029,-0.042,-0.016,-0.052,106.0,108.0,102.0,13.4,1505.3,325.5,-0.7,1.8,2470.237,13.31,0.044,249.1
2020-03-12T02:07:03,42.805,6.029,-0.036,0.001,-0.03,106.0,107.0,103.0,13.4,1505.3,324.9,-0.7,1.8,2470.196,13.31,0.036,271.6
2020-03-12T02:10:03,42.805,6.029,-0.058,-0.007,-0.03,106.0,107.0,104.0,13.4,1505.3,327.6,-0.7,1.8,2470.219,13.32,0.058,263.1
2020-03-12T02:13:03,42.805,6.029,-0.065,0.009,-0.032,105.0,107.0,103.0,13.4,1505.3,327.9,-0.7,1.8,2470.217,13.32,0.065,277.9
2020-03-12T02:16:03,42.805,6.029,-0.067,0.0,-0.014,106.0,106.0,102.0,13.4,1505.3,327.3,-0.7,1.8,2470.193,13.32,0.066,270.0
2020-03-12T02:19:03,42.805,6.029,-0.06,0.027,-0.049,105.0,106.0,103.0,13.4,1505.3,326.9,-0.7,1.8,2470.202,13.32,0.065,294.2
2020-03-12T02:22:03,42.805,6.029,-0.061,0.014,-0.061,105.0,105.0,102.0,13.4,1505.3,324.7,-0.7,1.8,2470.18,13.32,0.062,282.9
2020-03-12T02:25:03,42.805,6.029,-0.069,0.01,-0.04,104.0,104.0,102.0,13.4,1505.3,325.7,-0.7,1.8,2470.173,13.32,0.069,278.2
2020-03-12T02:28:03,42.805,6.029,-0.066,0.018,-0.042,106.0,107.0,102.0,13.4,1505.3,325.6,-0.7,1.8,2470.176,13.32,0.068,285.3
2020-03-12T02:31:03,42.805,6.029,-0.056,0.003,-0.047,106.0,107.0,102.0,13.3,1505.3,326.0,-0.7,1.8,2470.147,13.32,0.056,273.1
2020-03-12T02:34:03,42.805,6.029,-0.053,0.007,-0.056,106.0,107.0,102.0,13.4,1505.3,323.3,-0.7,1.8,2470.15,13.32,0.053,277.5
2020-03-12T02:37:03,42.805,6.029,-0.05,0.009,-0.032,106.0,107.0,103.0,13.4,1505.3,328.7,-0.7,1.9,2470.165,13.32,0.05,280.2
2020-03-12T02:40:03,42.805,6.029,-0.02,0.009,-0.024,106.0,107.0,102.0,13.4,1505.3,325.1,-0.7,1.8,2470.179,13.32,0.021,294.2
2020-03-12T02:43:03,42.805,6.029,-0.062,-0.01,-0.061,106.0,106.0,103.0,13.3,1505.3,325.5,-0.7,1.8,2470.141,13.32,0.062,260.8
2020-03-12T02:46:03,42.805,6.029,-0.056,0.022,-0.04,105.0,106.0,103.0,13.4,1505.3,327.3,-0.7,1.8,2470.134,13.32,0.06,291.4
2020-03-12T02:49:03,42.805,6.029,-0.08,0.016,-0.032,105.0,105.0,102.0,13.3,1505.3,323.3,-0.7,1.8,2470.158,13.32,0.081,281.3
2020-03-12T02:52:03,42.805,6.029,-0.053,0.021,-0.043,105.0,106.0,102.0,13.4,1505.3,327.6,-0.7,1.8,2470.133,13.32,0.057,291.6
2020-03-12T02:55:03,42.805,6.029,-0.077,0.025,-0.024,104.0,106.0,103.0,13.4,1505.3,325.0,-0.7,1.8,2470.159,13.32,0.08,288.0
2020-03-12T02:58:03,42.805,6.029,-0.053,0.002,-0.035,105.0,106.0,102.0,13.3,1505.3,324.9,-0.7,1.9,2470.133,13.32,0.053,272.2
2020-03-12T03:04:03,42.805,6.029,-0.049,0.003,-0.042,105.0,107.0,102.0,13.4,1505.3,323.6,-0.8,1.8,2470.214,13.31,0.049,273.5
2020-03-12T03:07:03,42.805,6.029,-0.056,0.016,-0.061,105.0,107.0,102.0,13.4,1505.3,327.3,-0.7,1.8,2470.189,13.31,0.058,285.9
2020-03-12T03:10:03,42.805,6.029,-0.042,0.025,-0.033,106.0,108.0,102.0,13.4,1505.3,324.1,-0.7,1.9,2470.157,13.32,0.048,300.8
2020-03-12T03:13:03,42.805,6.029,-0.068,0.005,-0.03,105.0,108.0,103.0,13.4,1505.3,325.6,-0.7,1.8,2470.194,13.32,0.068,274.2
2020-03-12T03:16:03,42.805,6.029,-0.027,0.01,-0.01,105.0,108.0,103.0,13.4,1505.3,326.5,-0.7,1.8,2470.166,13.32,0.028,290.3
2020-03-12T03:19:03,42.805,6.029,-0.051,0.04,-0.031,105.0,108.0,102.0,13.3,1505.3,326.0,-0.7,1.8,2470.183,13.32,0.064,308.1
2020-03-12T03:22:03,42.805,6.029,-0.059,0.025,-0.011,104.0,107.0,102.0,13.4,1505.3,323.9,-0.7,1.8,2470.13,13.32,0.064,293.0
2020-03-12T03:25:03,42.805,6.029,-0.021,0.033,-0.005,106.0,108.0,102.0,13.3,1505.3,326.7,-0.7,1.8,2470.162,13.32,0.039,327.5
2020-03-12T03:28:03,42.805,6.029,-0.068,0.021,-0.021,105.0,108.0,102.0,13.4,1505.3,328.1,-0.7,1.8,2470.174,13.33,0.071,287.2
2020-03-12T03:31:03,42.805,6.029,-0.062,0.024,-0.036,105.0,108.0,102.0,13.4,1505.3,324.3,-0.7,1.8,2470.169,13.33,0.066,291.2
2020-03-12T03:34:03,42.805,6.029,-0.042,0.039,-0.012,104.0,111.0,101.0,13.4,1505.3,326.3,-0.7,1.9,2470.176,13.33,0.057,312.9
2020-03-12T03:37:03,42.805,6.029,-0.059,0.025,-0.035,104.0,107.0,102.0,13.4,1505.3,325.1,-0.7,1.9,2470.199,13.33,0.064,293.0
2020-03-12T03:40:03,42.805,6.029,-0.049,0.023,-0.03,105.0,108.0,101.0,13.4,1505.3,326.8,-0.7,1.9,2470.151,13.33,0.054,295.1
2020-03-12T03:43:03,42.805,6.029,-0.044,0.022,-0.029,107.0,108.0,102.0,13.4,1505.3,328.1,-0.7,1.9,2470.118,13.33,0.049,296.6
2020-03-12T03:46:03,42.805,6.029,-0.034,0.038,-0.037,104.0,108.0,102.0,13.4,1505.3,327.8,-0.7,1.8,2470.176,13.33,0.05,318.2
2020-03-12T03:49:03,42.805,6.029,-0.049,0.028,-0.069,104.0,109.0,102.0,13.3,1505.3,327.8,-0.7,1.8,2470.146,13.33,0.056,299.7
2020-03-12T03:52:03,42.805,6.029,-0.08,0.02,-0.037,106.0,106.0,102.0,13.3,1505.3,324.5,-0.7,1.8,2470.153,13.33,0.082,284.0
2020-03-12T03:55:03,42.805,6.029,-0.039,0.032,-0.044,104.0,107.0,102.0,13.4,1505.3,326.9,-0.7,1.8,2470.128,13.33,0.05,309.4
2020-03-12T03:58:03,42.805,6.029,-0.065,0.008,-0.048,104.0,107.0,102.0,13.4,1505.3,324.4,-0.7,1.8,2470.139,13.33,0.065,277.0
2020-03-12T04:04:03,42.805,6.029,-0.048,0.03,-0.024,105.0,108.0,102.0,13.4,1505.3,326.7,-0.8,1.8,2470.198,13.31,0.056,302.0
2020-03-12T04:07:03,42.805,6.029,-0.054,0.008,-0.043,105.0,109.0,102.0,13.4,1505.3,325.1,-0.8,1.8,2470.19,13.31,0.054,278.4
2020-03-12T04:10:03,42.805,6.029,-0.016,0.027,-0.039,105.0,108.0,102.0,13.4,1505.3,326.0,-0.8,1.9,2470.172,13.32,0.031,329.3
2020-03-12T04:13:03,42.805,6.029,-0.03,0.008,-0.047,104.0,107.0,102.0,13.4,1505.3,327.3,-0.7,1.8,2470.176,13.32,0.031,284.9
2020-03-12T04:16:03,42.805,6.029,-0.042,0.021,-0.036,104.0,107.0,101.0,13.4,1505.3,328.2,-0.7,1.8,2470.18,13.32,0.046,296.6
2020-03-12T04:19:03,42.805,6.029,-0.054,0.014,-0.068,106.0,106.0,101.0,13.4,1505.3,324.6,-0.7,1.8,2470.162,13.32,0.055,284.5
2020-03-12T04:22:03,42.805,6.029,-0.066,0.024,-0.048,106.0,108.0,101.0,13.4,1505.3,324.5,-0.7,1.8,2470.122,13.32,0.07,290.0
2020-03-12T04:25:03,42.805,6.029,-0.029,0.023,-0.029,105.0,108.0,101.0,13.4,1505.3,326.7,-0.7,1.8,2470.187,13.32,0.037,308.4
2020-03-12T04:28:03,42.805,6.029,-0.046,0.02,-0.012,105.0,109.0,102.0,13.4,1505.3,323.9,-0.7,1.8,2470.203,13.33,0.05,293.5
2020-03-12T04:31:03,42.805,6.029,-0.036,-0.006,-0.046,104.0,108.0,102.0,13.4,1505.3,322.9,-0.7,1.8,2470.182,13.33,0.036,260.5
2020-03-12T04:34:03,42.805,6.029,-0.075,-0.011,-0.064,106.0,105.0,102.0,13.4,1505.3,325.5,-0.7,1.8,2470.121,13.33,0.075,261.7
2020-03-12T04:37:03,42.805,6.029,-0.045,0.011,-0.031,104.0,108.0,101.0,13.4,1505.3,326.9,-0.7,1.9,2470.154,13.33,0.046,283.7
2020-03-12T04:40:03,42.805,6.029,-0.013,0.005,-0.01,103.0,106.0,103.0,13.4,1505.3,328.2,-0.7,1.8,2470.195,13.33,0.013,291.0
2020-03-12T04:43:03,42.805,6.029,-0.046,0.033,-0.033,105.0,107.0,101.0,13.3,1505.3,327.3,-0.7,1.8,2470.169,13.33,0.056,305.7
2020-03-12T04:46:03,42.805,6.029,-0.043,-0.008,-0.044,106.0,108.0,102.0,13.4,1505.3,325.6,-0.7,1.9,2470.162,13.33,0.043,259.5
2020-03-12T04:49:03,42.805,6.029,-0.063,0.004,-0.022,104.0,107.0,103.0,13.3,1505.3,324.7,-0.7,1.8,2470.147,13.33,0.063,273.6
2020-03-12T04:52:03,42.805,6.029,-0.059,0.01,-0.049,105.0,106.0,102.0,13.4,1505.3,325.9,-0.7,1.8,2470.139,13.32,0.059,279.6
2020-03-12T04:55:03,42.805,6.029,-0.065,-0.001,-0.039,106.0,106.0,101.0,13.3,1505.3,326.7,-0.7,1.8,2470.16,13.32,0.065,269.1
2020-03-12T04:58:03,42.805,6.029,-0.067,0.02,-0.043,104.0,107.0,103.0,13.4,1505.3,326.6,-0.7,1.8,2470.178,13.32,0.069,286.6
2020-03-12T05:04:03,42.805,6.029,-0.057,0.03,-0.052,106.0,106.0,101.0,13.4,1505.2,326.3,-0.8,1.8,2470.227,13.3,0.064,297.8
2020-03-12T05:07:03,42.805,6.029,-0.062,0.017,-0.073,105.0,106.0,102.0,13.4,1505.3,326.2,-0.7,1.8,2470.222,13.31,0.064,285.3
2020-03-12T05:10:03,42.805,6.029,-0.065,0.025,-0.041,104.0,106.0,103.0,13.4,1505.3,324.2,-0.7,1.9,2470.227,13.31,0.069,291.0
2020-03-12T05:13:03,42.805,6.029,-0.06,0.009,-0.053,105.0,108.0,103.0,13.3,1505.3,323.2,-0.7,1.8,2470.213,13.32,0.06,278.5
2020-03-12T05:16:03,42.805,6.029,-0.042,0.005,-0.055,106.0,108.0,102.0,13.4,1505.3,325.0,-0.7,1.8,2470.199,13.32,0.042,276.8
2020-03-12T05:19:03,42.805,6.029,-0.057,0.005,-0.067,104.0,107.0,103.0,13.3,1505.3,325.0,-0.7,1.8,2470.209,13.32,0.057,275.0
2020-03-12T05:22:03,42.805,6.029,-0.057,0.013,-0.034,106.0,108.0,102.0,13.4,1505.3,324.2,-0.7,1.8,2470.246,13.32,0.058,282.8
2020-03-12T05:25:03,42.805,6.029,-0.031,0.003,-0.056,105.0,107.0,102.0,13.3,1505.3,325.9,-0.7,1.8,2470.254,13.32,0.031,275.5
2020-03-12T05:28:03,42.805,6.029,-0.052,0.025,-0.049,105.0,109.0,103.0,13.4,1505.3,326.0,-0.7,1.8,2470.232,13.32,0.057,295.7
2020-03-12T05:31:03,42.805,6.029,-0.061,0.006,-0.008,107.0,108.0,102.0,13.4,1505.3,323.9,-0.7,1.9,2470.195,13.32,0.061,275.6
2020-03-12T05:34:03,42.805,6.029,-0.053,0.018,-0.031,106.0,108.0,102.0,13.3,1505.3,323.7,-0.7,1.9,2470.261,13.33,0.055,288.8
2020-03-12T05:37:03,42.805,6.029,-0.037,0.031,-0.036,105.0,110.0,103.0,13.4,1505.3,327.7,-0.7,1.8,2470.225,13.33,0.048,310.0
2020-03-12T05:40:03,42.805,6.029,-0.05,0.011,-0.044,105.0,108.0,102.0,13.4,1505.3,326.4,-0.7,1.8,2470.211,13.33,0.051,282.4
2020-03-12T05:43:03,42.805,6.029,-0.041,0.018,-0.043,106.0,108.0,102.0,13.3,1505.3,326.4,-0.7,1.8,2470.207,13.33,0.044,293.7
2020-03-12T05:46:03,42.805,6.029,-0.047,0.037,-0.014,106.0,109.0,103.0,13.4,1505.3,323.7,-0.7,1.8,2470.242,13.33,0.059,308.2
2020-03-12T05:49:03,42.805,6.029,-0.033,0.024,-0.011,105.0,109.0,102.0,13.4,1505.3,328.4,-0.7,1.8,2470.231,13.33,0.04,306.0
2020-03-12T05:52:03,42.805,6.029,-0.058,0.014,-0.061,105.0,108.0,102.0,13.4,1505.3,324.5,-0.7,1.8,2470.262,13.33,0.059,283.6
2020-03-12T05:55:03,42.805,6.029,-0.066,0.018,-0.034,105.0,109.0,102.0,13.4,1505.3,327.1,-0.7,1.8,2470.22,13.33,0.068,285.3
2020-03-12T05:58:03,42.805,6.029,-0.024,0.016,-0.017,105.0,108.0,103.0,13.4,1505.3,323.8,-0.7,1.8,2470.279,13.33,0.028,303.7
2020-03-12T06:04:03,42.805,6.029,-0.039,0.037,-0.039,105.0,109.0,102.0,13.4,1505.3,327.4,-0.7,1.8,2470.324,13.31,0.053,313.5
2020-03-12T06:07:03,42.805,6.029,-0.037,0.028,-0.024,104.0,109.0,102.0,13.3,1505.3,326.2,-0.7,1.8,2470.3,13.31,0.046,307.1
2020-03-12T06:10:03,42.805,6.029,-0.047,0.008,-0.042,106.0,108.0,102.0,13.4,1505.3,324.3,-0.7,1.8,2470.283,13.32,0.047,279.7
2020-03-12T06:13:03,42.805,6.029,-0.051,0.023,-0.03,105.0,109.0,102.0,13.4,1505.3,324.7,-0.7,1.8,2470.349,13.32,0.055,294.3
2020-03-12T06:16:03,42.805,6.029,-0.037,0.028,-0.048,105.0,109.0,101.0,13.4,1505.3,326.0,-0.7,1.9,2470.293,13.32,0.046,307.1
2020-03-12T06:19:03,42.805,6.029,-0.018,0.004,-0.047,104.0,108.0,102.0,13.4,1505.3,324.8,-0.7,1.8,2470.297,13.33,0.018,282.5
2020-03-12T06:22:03,42.805,6.029,-0.048,0.02,-0.013,105.0,107.0,101.0,13.4,1505.3,326.5,-0.7,1.8,2470.286,13.33,0.052,292.6
2020-03-12T06:25:03,42.805,6.029,-0.031,0.013,-0.028,105.0,106.0,102.0,13.3,1505.3,326.3,-0.7,1.8,2470.285,13.33,0.033,292.7
2020-03-12T06:28:03,42.805,6.029,-0.071,0.027,-0.042,103.0,107.0,102.0,13.4,1505.3,325.3,-0.7,1.8,2470.319,13.33,0.075,290.8
2020-03-12T06:31:03,42.805,6.029,-0.053,0.036,-0.002,105.0,106.0,100.0,13.4,1505.3,325.4,-0.7,1.8,2470.312,13.33,0.064,304.2
2020-03-12T06:34:03,42.805,6.029,-0.044,0.027,-0.053,105.0,108.0,101.0,13.3,1505.3,326.2,-0.7,1.9,2470.311,13.33,0.051,301.5
2020-03-12T06:37:03,42.805,6.029,-0.063,0.041,-0.012,103.0,106.0,101.0,13.3,1505.3,327.5,-0.7,1.8,2470.295,13.33,0.075,303.1
2020-03-12T06:40:03,42.805,6.029,-0.046,0.001,-0.041,105.0,107.0,102.0,13.4,1505.3,326.8,-0.7,1.9,2470.306,13.33,0.046,271.2
2020-03-12T06:43:03,42.805,6.029,-0.036,0.044,-0.045,104.0,108.0,101.0,13.4,1505.3,328.3,-0.7,1.8,2470.34,13.33,0.056,320.7
2020-03-12T06:46:03,42.805,6.029,-0.053,0.018,-0.022,103.0,106.0,100.0,13.4,1505.3,325.6,-0.7,1.8,2470.328,13.33,0.055,288.8
2020-03-12T06:49:03,42.805,6.029,-0.036,0.016,-0.058,103.0,106.0,102.0,13.4,1505.3,328.1,-0.7,1.9,2470.351,13.33,0.039,294.0
2020-03-12T06:52:03,42.805,6.029,-0.059,0.039,-0.039,104.0,107.0,101.0,13.4,1505.3,324.5,-0.7,1.8,2470.328,13.33,0.07,303.5
2020-03-12T06:55:03,42.805,6.029,-0.046,0.031,-0.001,103.0,108.0,101.0,13.4,1505.3,324.9,-0.7,1.8,2470.328,13.33,0.055,304.0
2020-03-12T06:58:03,42.805,6.029,-0.04,0.021,-0.035,105.0,106.0,101.0,13.3,1505.3,324.4,-0.7,1.8,2470.308,13.33,0.045,297.7
2020-03-12T07:04:03,42.805,6.029,-0.059,0.006,-0.05,102.0,107.0,101.0,13.3,1505.3,327.5,-0.8,1.8,2470.43,13.31,0.059,275.8
2020-03-12T07:07:03,42.805,6.029,-0.062,0.014,-0.048,103.0,107.0,101.0,13.4,1505.3,328.0,-0.7,1.8,2470.363,13.31,0.063,282.7
2020-03-12T07:10:03,42.805,6.029,-0.047,0.029,-0.04,104.0,107.0,102.0,13.3,1505.3,327.4,-0.7,1.8,2470.383,13.32,0.055,301.7
2020-03-12T07:13:03,42.805,6.029,-0.024,0.017,-0.013,103.0,107.0,100.0,13.4,1505.3,327.8,-0.7,1.8,2470.388,13.32,0.029,305.3
2020-03-12T07:16:03,42.805,6.029,-0.046,0.023,-0.023,106.0,106.0,101.0,13.4,1505.3,326.6,-0.7,1.8,2470.35,13.32,0.051,296.6
2020-03-12T07:19:03,42.805,6.029,-0.05,0.018,-0.014,103.0,107.0,102.0,13.3,1505.3,324.8,-0.7,1.8,2470.377,13.32,0.053,289.8
2020-03-12T07:22:03,42.805,6.029,-0.037,0.011,-0.056,104.0,106.0,101.0,13.4,1505.3,326.7,-0.7,1.9,2470.377,13.32,0.038,286.6
2020-03-12T07:25:03,42.805,6.029,-0.06,0.028,-0.043,103.0,106.0,102.0,13.3,1505.3,323.4,-0.7,1.9,2470.395,13.32,0.066,295.0
2020-03-12T07:28:03,42.805,6.029,-0.015,0.022,-0.024,104.0,105.0,102.0,13.3,1505.3,326.2,-0.7,1.8,2470.419,13.32,0.026,325.7
2020-03-12T07:31:03,42.805,6.029,-0.044,0.017,-0.001,102.0,107.0,101.0,13.3,1505.3,326.3,-0.7,1.8,2470.42,13.32,0.047,291.1
2020-03-12T07:34:03,42.805,6.029,-0.023,0.01,0.005,103.0,106.0,101.0,13.4,1505.3,325.2,-0.7,1.8,2470.363,13.33,0.025,293.5
2020-03-12T07:37:03,42.805,6.029,-0.036,0.024,-0.035,103.0,107.0,102.0,13.4,1505.3,323.4,-0.7,1.8,2470.403,13.33,0.043,303.7
2020-03-12T07:40:03,42.805,6.029,-0.053,0.004,-0.021,104.0,107.0,101.0,13.4,1505.3,325.5,-0.7,1.8,2470.388,13.33,0.053,274.3
2020-03-12T07:43:03,42.805,6.029,-0.042,0.024,-0.033,104.0,106.0,101.0,13.4,1505.3,326.7,-0.7,1.8,2470.366,13.33,0.048,299.7
2020-03-12T07:46:03,42.805,6.029,-0.047,0.0,-0.036,104.0,104.0,100.0,13.4,1505.3,323.8,-0.7,1.8,2470.401,13.33,0.047,270.0
2020-03-12T07:49:03,42.805,6.029,-0.036,0.034,-0.024,102.0,107.0,101.0,13.4,1505.3,325.7,-0.7,1.9,2470.421,13.33,0.049,313.4
2020-03-12T07:52:03,42.805,6.029,-0.054,0.038,-0.055,103.0,106.0,102.0,13.3,1505.3,328.4,-0.7,1.9,2470.351,13.33,0.066,305.1
2020-03-12T07:55:03,42.805,6.029,-0.025,0.015,-0.045,103.0,106.0,102.0,13.3,1505.3,326.9,-0.7,1.8,2470.402,13.33,0.029,301.0
2020-03-12T07:58:03,42.805,6.029,-0.019,0.035,-0.028,104.0,108.0,101.0,13.3,1505.3,326.5,-0.7,1.8,2470.388,13.33,0.039,331.5
2020-03-12T08:04:03,42.805,6.029,-0.037,0.014,-0.055,104.0,106.0,101.0,13.3,1505.3,322.8,-0.8,1.8,2470.457,13.31,0.039,290.7
2020-03-12T08:07:03,42.805,6.029,-0.044,0.013,-0.031,102.0,105.0,101.0,13.4,1505.3,323.3,-0.7,1.8,2470.452,13.31,0.045,286.5
2020-03-12T08:10:03,42.805,6.029,-0.038,0.022,-0.059,102.0,105.0,101.0,13.3,1505.3,326.0,-0.7,1.8,2470.44,13.32,0.043,300.1
2020-03-12T08:13:03,42.805,6.029,-0.033,0.003,-0.025,103.0,105.0,101.0,13.4,1505.3,328.3,-0.7,1.9,2470.424,13.32,0.033,275.2
2020-03-12T08:16:03,42.805,6.029,-0.034,0.019,-0.075,104.0,105.0,99.0,13.3,1505.3,324.9,-0.7,1.8,2470.438,13.32,0.038,299.2
2020-03-12T08:19:03,42.805,6.029,-0.067,0.015,-0.047,103.0,105.0,101.0,13.4,1505.3,324.4,-0.7,1.8,2470.474,13.32,0.068,282.6
2020-03-12T08:22:03,42.805,6.029,-0.032,0.003,-0.016,104.0,107.0,101.0,13.4,1505.3,327.1,-0.7,1.8,2470.431,13.32,0.032,275.4
2020-03-12T08:25:03,42.805,6.029,-0.049,0.015,-0.046,103.0,106.0,102.0,13.4,1505.3,323.4,-0.7,1.8,2470.442,13.33,0.051,287.0
2020-03-12T08:28:03,42.805,6.029,-0.01,-0.003,0.0,103.0,105.0,101.0,13.4,1505.3,323.5,-0.7,1.8,2470.441,13.32,0.01,253.3
2020-03-12T08:31:03,42.805,6.029,-0.05,0.025,-0.044,102.0,106.0,102.0,13.4,1505.3,327.9,-0.7,1.9,2470.464,13.32,0.055,296.6
2020-03-12T08:34:03,42.805,6.029,-0.047,0.009,-0.043,103.0,103.0,100.0,13.4,1505.3,324.2,-0.7,1.8,2470.414,13.32,0.047,280.8
2020-03-12T08:37:03,42.805,6.029,-0.05,0.031,-0.059,103.0,106.0,100.0,13.4,1505.3,324.9,-0.7,1.9,2470.456,13.32,0.058,301.8
2020-03-12T08:40:03,42.805,6.029,-0.056,0.011,-0.054,104.0,106.0,100.0,13.3,1505.3,324.1,-0.7,1.9,2470.454,13.32,0.057,281.1
2020-03-12T08:43:03,42.805,6.029,-0.041,0.01,-0.027,104.0,106.0,100.0,13.3,1505.3,323.5,-0.7,1.8,2470.39,13.32,0.042,283.7
2020-03-12T08:46:03,42.805,6.029,-0.063,0.023,-0.048,103.0,105.0,100.0,13.4,1505.3,324.7,-0.7,1.8,2470.421,13.32,0.067,290.1
2020-03-12T08:49:03,42.805,6.029,-0.056,0.016,-0.046,102.0,103.0,101.0,13.4,1505.3,327.9,-0.7,1.8,2470.433,13.32,0.058,285.9
2020-03-12T08:52:03,42.805,6.029,-0.042,0.024,-0.025,103.0,106.0,100.0,13.4,1505.3,324.8,-0.7,1.8,2470.472,13.32,0.048,299.7
2020-03-12T08:55:03,42.805,6.029,-0.039,0.013,-0.041,103.0,106.0,101.0,13.4,1505.3,326.9,-0.7,1.8,2470.415,13.32,0.041,288.4
2020-03-12T08:58:03,42.805,6.029,-0.021,-0.001,-0.023,103.0,106.0,100.0,13.3,1505.3,323.3,-0.7,1.8,2470.421,13.33,0.021,267.3
2020-03-12T09:04:03,42.805,6.029,-0.044,0.029,-0.037,102.0,105.0,100.0,13.4,1505.2,324.5,-0.8,1.8,2470.469,13.3,0.052,303.4
2020-03-12T09:07:03,42.805,6.029,-0.052,0.03,-0.045,103.0,105.0,100.0,13.4,1505.3,325.3,-0.7,1.8,2470.457,13.31,0.06,300.0
2020-03-12T09:10:03,42.805,6.029,-0.016,-0.003,-0.034,104.0,105.0,100.0,13.4,1505.3,323.6,-0.7,1.8,2470.449,13.32,0.016,259.4
2020-03-12T09:13:03,42.805,6.029,-0.072,0.009,-0.048,103.0,105.0,101.0,13.4,1505.3,328.3,-0.7,1.8,2470.429,13.32,0.072,277.1
2020-03-12T09:16:03,42.805,6.029,-0.035,-0.005,-0.036,104.0,104.0,101.0,13.4,1505.3,324.2,-0.7,1.9,2470.393,13.32,0.035,261.9
2020-03-12T09:19:03,42.805,6.029,-0.052,0.04,-0.043,104.0,104.0,102.0,13.3,1505.3,324.9,-0.7,1.8,2470.432,13.32,0.065,307.6
2020-03-12T09:22:03,42.805,6.029,-0.046,0.026,-0.069,104.0,108.0,100.0,13.3,1505.3,323.1,-0.7,1.8,2470.497,13.32,0.052,299.5
2020-03-12T09:25:03,42.805,6.029,-0.057,0.026,-0.061,103.0,106.0,100.0,13.3,1505.3,325.9,-0.7,1.9,2470.466,13.32,0.062,294.5
2020-03-12T09:28:03,42.805,6.029,-0.051,0.0,-0.059,102.0,106.0,100.0,13.4,1505.3,326.7,-0.7,1.8,2470.45,13.32,0.051,270.0
2020-03-12T09:31:03,42.805,6.029,-0.038,0.02,-0.037,103.0,106.0,100.0,13.4,1505.3,324.5,-0.7,1.8,2470.463,13.32,0.042,297.8
2020-03-12T09:34:03,42.805,6.029,-0.029,0.014,-0.024,104.0,105.0,101.0,13.4,1505.3,326.9,-0.7,1.8,2470.447,13.32,0.032,295.8
2020-03-12T09:37:03,42.805,6.029,-0.03,0.02,-0.041,104.0,106.0,101.0,13.3,1505.3,325.0,-0.7,1.8,2470.437,13.32,0.036,303.7
2020-03-12T09:40:03,42.805,6.029,-0.035,0.012,-0.095,104.0,106.0,102.0,13.3,1505.3,326.5,-0.7,1.9,2470.446,13.32,0.037,288.9
2020-03-12T09:43:03,42.805,6.029,-0.04,0.016,-0.042,104.0,105.0,102.0,13.4,1505.3,326.7,-0.7,1.8,2470.447,13.32,0.043,291.8
2020-03-12T09:46:03,42.805,6.029,-0.053,0.025,-0.043,103.0,105.0,101.0,13.4,1505.3,328.4,-0.7,1.9,2470.435,13.32,0.058,295.3
2020-03-12T09:49:03,42.805,6.029,-0.022,0.019,-0.041,103.0,104.0,101.0,13.4,1505.3,326.8,-0.7,1.8,2470.433,13.32,0.029,310.8
2020-03-12T09:52:03,42.805,6.029,-0.059,0.003,-0.085,103.0,105.0,100.0,13.4,1505.3,327.7,-0.7,1.9,2470.429,13.32,0.059,272.9
2020-03-12T09:55:03,42.805,6.029,-0.061,0.023,-0.051,103.0,104.0,101.0,13.4,1505.3,326.9,-0.7,1.8,2470.423,13.32,0.065,290.7